Weather History for KSTP - October, 2013

Change the Weather History Date:

Sunday, October 6, 2013

  Actual Average Record
Temperature  
Mean Temperature 47 °F -  
Max Temperature 55 °F 62 °F 89 °F (2007)
Min Temperature 39 °F 40 °F 30 °F (2001)
Degree Days  
Heating Degree Days 18    
Moisture  
Dew Point 45 °F    
Average Humidity 91    
Maximum Humidity 100    
Minimum Humidity 74    
Precipitation  
Precipitation 0.03 in - - ()
Sea Level Pressure  
Sea Level Pressure 29.74 in    
Wind  
Wind Speed 4 mph (NW)    
Max Wind Speed 16 mph    
Max Gust Speed 21 mph    
Visibility 6 miles    
Events Fog , Rain    
Averages and records for this station are not official NWS values.
T = Trace of Precipitation, MM = Missing Value Source: NWS Daily Summary

Daily Weather History Graph

Daily Weather History Graph

Search for Another Location

Airport or City:

Trip Planner

Search our weather history database for the weather conditions in past years. The results will help you decide how hot, cold, wet, or windy it might be!

Date:

Astronomy

Oct. 06, 2013 Rise Set
Actual Time 7:16 AM CDT 6:42 PM CDT
Civil Twilight 6:47 AM CDT 7:12 PM CDT
Nautical Twilight 6:13 AM CDT 7:46 PM CDT
Astronomical Twilight 5:39 AM CDT 8:20 PM CDT
Moon 9:07 AM CDT (10/6) 7:36 PM CDT (10/6)
Length of Visible Light 12h 24m
Length of Day
11h 26m
Waxing Crescent, 3% of the Moon is Illuminated
Oct 6
Waxing Crescent
Oct 11
First Quarter
Oct 18
Full
Oct 26
Last Quarter
Nov 3
New

Hourly Weather History & Observations

Time (CDT) Temp. Windchill Dew Point Humidity Pressure Visibility Wind Dir Wind Speed Gust Speed Precip Events Conditions
12:34 AM 44.6 °F 41.4 °F 42.8 °F 93% 29.74 in 10.0 mi South 5.8 mph - N/A   Partly Cloudy
12:53 AM 45.0 °F - 43.0 °F 93% 29.74 in 10.0 mi Calm Calm - N/A   Partly Cloudy
1:19 AM 46.4 °F - 44.6 °F 93% 29.74 in 10.0 mi Calm Calm - N/A   Mostly Cloudy
1:53 AM 44.1 °F - 43.0 °F 96% 29.75 in 8.0 mi Calm Calm - N/A   Scattered Clouds
2:21 AM 44.6 °F - 42.8 °F 93% 29.73 in 1.2 mi Calm Calm - N/A   Scattered Clouds
2:23 AM 44.6 °F - 42.8 °F 93% 29.73 in 0.8 mi Calm Calm - N/A   Mist
2:53 AM 45.0 °F - 44.1 °F 97% 29.73 in 0.2 mi Calm Calm - N/A Fog Fog
3:24 AM 44.6 °F 43.1 °F 44.6 °F 100% 29.72 in 1.8 mi SE 3.5 mph - N/A   Overcast
3:26 AM 44.6 °F 43.1 °F 44.6 °F 100% 29.72 in 3.0 mi SE 3.5 mph - N/A   Mostly Cloudy
3:32 AM 44.6 °F 43.1 °F 44.6 °F 100% 29.72 in 1.0 mi Variable 3.5 mph - N/A   Mist
3:39 AM 44.6 °F - 44.6 °F 100% 29.71 in 0.2 mi Calm Calm - N/A Fog Fog
3:53 AM 44.1 °F - 44.1 °F 100% 29.72 in 0.2 mi Calm Calm - N/A Fog Fog
4:53 AM 42.1 °F - 41.0 °F 96% 29.71 in 1.5 mi Calm Calm - N/A   Mostly Cloudy
5:03 AM 42.8 °F - 42.8 °F 100% 29.70 in 1.0 mi Calm Calm - N/A   Mist
5:10 AM 42.8 °F - 41.0 °F 93% 29.70 in 0.5 mi Calm Calm - N/A Fog Fog
5:17 AM 42.8 °F - 42.8 °F 100% 29.70 in 1.8 mi Calm Calm - N/A   Mostly Cloudy
5:19 AM 42.8 °F - 42.8 °F 100% 29.70 in 4.0 mi Calm Calm - N/A   Mostly Cloudy
5:51 AM 42.8 °F - 41.0 °F 93% 29.71 in 9.0 mi Calm Calm - N/A   Scattered Clouds
5:53 AM 42.1 °F - 41.0 °F 96% 29.72 in 9.0 mi Calm Calm - N/A   Partly Cloudy
6:25 AM 41.0 °F - 41.0 °F 100% 29.71 in 1.8 mi Calm Calm - N/A   Clear
6:35 AM 41.0 °F - 39.2 °F 93% 29.71 in 5.0 mi Calm Calm - N/A   Clear
6:53 AM 39.9 °F - 39.0 °F 97% 29.72 in 10.0 mi Calm Calm - N/A   Clear
7:53 AM 39.9 °F - 39.9 °F 100% 29.72 in 9.0 mi Calm Calm - N/A   Clear
8:53 AM 45.0 °F - 43.0 °F 93% 29.72 in 10.0 mi Calm Calm - N/A   Clear
9:53 AM 46.9 °F - 44.1 °F 90% 29.72 in 10.0 mi Calm Calm - N/A   Clear
10:53 AM 51.1 °F - 46.0 °F 83% 29.73 in 10.0 mi Variable 3.5 mph - N/A   Mostly Cloudy
11:06 AM 51.8 °F - 46.4 °F 82% 29.72 in 10.0 mi Calm Calm - N/A   Overcast
11:40 AM 53.6 °F - 46.4 °F 77% 29.72 in 10.0 mi Calm Calm - N/A   Overcast
11:53 AM 54.0 °F - 46.0 °F 75% 29.72 in 10.0 mi East 3.5 mph - N/A   Overcast
12:20 PM 53.6 °F - 46.4 °F 77% 29.71 in 10.0 mi NW 5.8 mph - N/A   Overcast
12:53 PM 55.9 °F - 48.9 °F 77% 29.72 in 10.0 mi NW 6.9 mph - N/A   Overcast
1:19 PM 53.6 °F - 46.4 °F 77% 29.71 in 10.0 mi NW 9.2 mph - N/A   Overcast
1:53 PM 55.0 °F - 46.9 °F 74% 29.70 in 10.0 mi Calm Calm - 0.00 in   Mostly Cloudy
2:53 PM 53.1 °F - 48.9 °F 86% 29.71 in 7.0 mi NW 10.4 mph - 0.00 in Rain Light Rain
3:03 PM 53.6 °F - 48.2 °F 82% 29.71 in 6.0 mi NW 8.1 mph - 0.00 in Rain Light Rain
3:12 PM 53.6 °F - 50.0 °F 88% 29.71 in 2.0 mi NW 9.2 mph - 0.00 in Rain Light Rain
3:20 PM 51.8 °F - 50.0 °F 94% 29.72 in 1.8 mi NW 9.2 mph - 0.00 in Rain Light Rain
3:23 PM 51.8 °F - 50.0 °F 94% 29.72 in 2.0 mi NNW 11.5 mph - 0.01 in Rain Light Rain
3:38 PM 51.8 °F - 50.0 °F 94% 29.72 in 1.5 mi NNW 12.7 mph - 0.01 in Rain Light Rain
3:47 PM 51.8 °F - 50.0 °F 94% 29.72 in 3.0 mi NNW 13.8 mph - 0.01 in Rain Light Rain
3:53 PM 52.0 °F - 48.9 °F 89% 29.73 in 8.0 mi NNW 12.7 mph - 0.01 in Rain Light Rain
4:05 PM 51.8 °F - 48.2 °F 88% 29.73 in 8.0 mi NW 12.7 mph - 0.00 in   Overcast
4:29 PM 51.8 °F - 48.2 °F 88% 29.73 in 6.0 mi NNW 12.7 mph - 0.00 in   Overcast
4:53 PM 52.0 °F - 48.9 °F 89% 29.75 in 10.0 mi NNW 12.7 mph - 0.00 in   Overcast
5:51 PM 51.8 °F - 48.2 °F 88% 29.77 in 10.0 mi NW 11.5 mph - N/A   Mostly Cloudy
5:53 PM 51.1 °F - 48.0 °F 89% 29.78 in 10.0 mi NW 16.1 mph 20.7 mph N/A   Overcast
6:53 PM 48.9 °F - 46.0 °F 90% 29.80 in 8.0 mi NNW 13.8 mph - 0.00 in Rain Light Rain
7:25 PM 48.2 °F - 46.4 °F 93% 29.81 in 7.0 mi NW 12.7 mph - 0.02 in Rain Light Rain
7:46 PM 48.2 °F - 46.4 °F 93% 29.82 in 10.0 mi NNW 11.5 mph - 0.02 in   Overcast
7:53 PM 48.9 °F - 46.0 °F 90% 29.83 in 10.0 mi NNW 11.5 mph - 0.02 in   Overcast
8:34 PM 48.2 °F - 44.6 °F 87% 29.82 in 10.0 mi NW 10.4 mph - N/A   Scattered Clouds
8:53 PM 46.9 °F - 45.0 °F 93% 29.83 in 10.0 mi NW 8.1 mph - N/A   Partly Cloudy
9:53 PM 46.0 °F 43.9 °F 44.1 °F 93% 29.84 in 10.0 mi WNW 4.6 mph - N/A   Clear
10:53 PM 46.0 °F 43.9 °F 44.1 °F 93% 29.85 in 10.0 mi WNW 4.6 mph - N/A   Clear
11:53 PM 46.0 °F 44.8 °F 44.1 °F 93% 29.85 in 10.0 mi NW 3.5 mph - N/A   Clear